FW9086 Weather Reports


Display with metric or nautical units.
time (UTC)temp
F
wind
direction
speed
MPH
gust
MPH
rain 1hr
in
rain 24hr
in
rain mn
in
humidity
%
barometer
mb
20260906014908 79 151 0.0 0.0 0.00 0.01 0.01 88 1010.9
20260906014403 79 147 0.0 0.0 0.00 0.01 0.01 88 1011.1
20260906013859 79 147 0.0 0.0 0.00 0.01 0.01 87 1010.9
20260906013354 79 128 0.0 0.0 0.00 0.01 0.01 87 1011.1
20260906012850 79 144 0.0 0.0 0.00 0.01 0.01 88 1010.8
20260906012344 79 135 0.0 0.0 0.00 0.01 0.01 87 1010.9
20260906011838 79 165 0.0 0.0 0.00 0.01 0.01 87 1010.5
20260906011333 79 136 0.0 0.0 0.00 0.01 0.01 87 1010.6
20260906010829 79 159 0.0 0.0 0.00 0.01 0.01 87 1010.7
20260906010325 79 150 0.0 0.0 0.00 0.01 0.01 87 1010.6
20260906005820 79 150 0.0 0.0 0.00 0.01 0.01 86 1010.6
20260906005319 79 123 0.0 0.0 0.00 0.01 0.01 86 1010.5
20260906004818 79 134 0.0 0.0 0.00 0.01 0.01 86 1010.3
20260906004318 80 132 0.0 0.0 0.00 0.01 0.01 86 1010.0
20260906003813 80 149 0.0 0.0 0.00 0.01 0.01 86 1010.1
20260906003308 80 158 0.0 0.0 0.00 0.01 0.01 86 1010.3
20260906002804 80 129 0.0 0.0 0.00 0.01 0.01 86 1010.1
20260906002306 80 152 0.0 0.0 0.00 0.01 0.01 86 1010.1
20260906001759 80 151 0.0 1.0 0.00 0.01 0.01 86 1010.2
20260906001254 80 160 0.0 0.0 0.00 0.01 0.01 86 1010.0
20260906000749 80 162 0.0 0.0 0.00 0.01 0.01 85 1010.0
20260906000244 80 164 0.0 1.0 0.00 0.01 0.01 84 1010.2
20260905235739 80 148 0.0 0.0 0.00 0.01 0.01 83 1010.0
20260905235238 80 145 0.0 0.0 0.00 0.01 0.01 84 1010.3
20260905234734 80 153 0.0 0.0 0.00 0.01 0.01 84 1010.4
20260905234229 80 167 0.0 0.0 0.00 0.01 0.01 83 1010.2
20260905233725 80 174 0.0 0.0 0.00 0.01 0.01 84 1010.1
20260905233224 80 169 0.0 0.0 0.00 0.01 0.01 83 1010.2
20260905232719 80 169 0.0 0.0 0.00 0.01 0.01 83 1010.2
20260905232214 80 171 0.0 0.0 0.00 0.01 0.01 81 1010.4
20260905231710 80 172 0.0 0.0 0.00 0.01 0.01 81 1010.1
20260905231205 80 150 0.0 0.0 0.00 0.01 0.01 83 1010.1
20260905230702 80 158 0.0 1.0 0.00 0.01 0.01 82 1010.1
20260905230159 80 166 0.0 0.0 0.00 0.01 0.01 82 1009.9
20260905225659 80 175 0.0 0.0 0.00 0.01 0.01 84 1010.0
20260905225154 80 176 0.0 0.0 0.00 0.01 0.01 85 1009.8
20260905224653 80 168 0.0 0.0 0.00 0.01 0.01 88 1009.8
20260905224148 80 176 0.0 0.0 0.00 0.01 0.01 88 1009.9
20260905223645 80 174 0.0 0.0 0.00 0.01 0.01 88 1009.9
20260905223141 80 181 0.0 0.0 0.00 0.01 0.01 90 1009.9
20260905222637 80 164 0.0 0.0 0.00 0.01 0.01 91 1009.8
20260905222131 80 178 0.0 0.0 0.00 0.01 0.01 92 1010.0
20260905221627 80 238 1.0 1.0 0.00 0.01 0.01 92 1010.1
20260905221124 80 126 0.0 0.0 0.00 0.01 0.01 93 1010.1
20260905220619 80 184 0.0 0.0 0.00 0.01 0.01 93 1010.1
20260905220115 80 208 0.0 1.0 0.00 0.01 0.01 93 1010.0
20260905215614 80 171 0.0 0.0 0.00 0.01 0.01 94 1009.6
20260905215104 81 167 0.0 0.0 0.00 0.01 0.01 93 1009.7
20260905214600 82 191 0.0 0.0 0.00 0.01 0.01 90 1009.8
20260905214055 82 164 0.0 0.0 0.05 0.01 0.01 88 1009.7
20260905213550 84 188 0.0 0.0 0.05 0.01 0.01 85 1010.2
20260905213045 85 186 1.0 1.0 0.00 0.00 0.00 80 1010.3
20260905212545 85 185 1.0 1.0 0.00 0.00 0.00 78 1010.1
20260905212045 86 176 0.0 0.0 0.00 0.00 0.00 77 1009.8
20260905211540 86 169 1.0 1.0 0.00 0.00 0.00 75 1009.6
20260905211036 86 172 0.0 0.0 0.00 0.00 0.00 75 1010.1
20260905210531 87 194 1.0 1.0 0.00 0.00 0.00 75 1009.8
20260905210026 88 191 0.0 1.0 0.00 0.00 0.00 70 1010.0
20260905205525 89 121 0.0 1.0 0.00 0.00 0.00 67 1010.0
20260905205024 90 172 0.0 0.0 0.00 0.00 0.00 68 1009.6
20260905204519 92 260 2.0 2.0 0.00 0.00 0.00 67 1009.9
20260905204015 93 198 0.0 0.0 0.00 0.00 0.00 62 1009.9
20260905203509 93 183 0.0 0.0 0.00 0.00 0.00 62 1010.0
20260905203005 94 204 0.0 0.0 0.00 0.00 0.00 62 1010.1
20260905202500 92 186 0.0 0.0 0.00 0.00 0.00 63 1010.1
20260905201956 92 166 0.0 0.0 0.00 0.00 0.00 68 1010.2
20260905201450 93 192 0.0 0.0 0.00 0.00 0.00 61 1010.3
20260905200950 92 224 0.0 1.0 0.00 0.00 0.00 66 1010.3
20260905200446 94 232 2.0 2.0 0.00 0.00 0.00 61 1010.3
20260905195944 92 166 0.0 0.0 0.00 0.00 0.00 68 1010.4
20260905195439 91 199 1.0 2.0 0.00 0.00 0.00 67 1010.1
20260905194935 90 168 0.0 0.0 0.00 0.00 0.00 68 1010.2
20260905194434 90 174 0.0 0.0 0.00 0.00 0.00 66 1010.5
20260905193929 91 100 0.0 0.0 0.00 0.00 0.00 65 1010.5
20260905193424 91 232 2.0 2.0 0.00 0.00 0.00 66 1010.5
20260905192919 93 233 2.0 2.0 0.00 0.00 0.00 62 1010.6
20260905192414 94 185 0.0 1.0 0.00 0.00 0.00 62 1010.5
20260905191914 92 186 0.0 0.0 0.00 0.00 0.00 64 1010.5
20260905191414 91 217 2.0 2.0 0.00 0.00 0.00 64 1010.7
20260905190908 91 178 0.0 0.0 0.00 0.00 0.00 65 1010.9
20260905190400 90 178 0.0 0.0 0.00 0.00 0.00 69 1011.1
20260905185859 89 135 0.0 0.0 0.00 0.00 0.00 68 1010.7
20260905185355 89 188 0.0 1.0 0.00 0.00 0.00 65 1011.0
20260905184853 89 233 2.0 2.0 0.00 0.00 0.00 65 1011.1
20260905184353 89 181 0.0 0.0 0.00 0.00 0.00 66 1011.4
20260905183851 89 225 2.0 2.0 0.00 0.00 0.00 67 1011.2
20260905183347 89 205 1.0 1.0 0.00 0.00 0.00 66 1011.3
20260905182842 89 234 3.0 5.0 0.00 0.00 0.00 65 1011.7
20260905182341 89 257 3.0 3.0 0.00 0.00 0.00 67 1011.3
20260905181837 90 208 0.0 1.0 0.00 0.00 0.00 65 1011.5
20260905181336 89 189 0.0 1.0 0.00 0.00 0.00 65 1011.6
20260905180836 89 230 2.0 2.0 0.00 0.00 0.00 63 1011.7
20260905180331 89 235 3.0 3.0 0.00 0.00 0.00 64 1011.8
20260905175826 89 249 2.0 2.0 0.00 0.00 0.00 62 1011.7
20260905175320 89 228 1.0 2.0 0.00 0.00 0.00 62 1011.8
20260905174815 89 212 1.0 1.0 0.00 0.00 0.00 62 1012.0
20260905174311 89 202 0.0 1.0 0.00 0.00 0.00 63 1011.9
20260905173807 89 173 0.0 1.0 0.00 0.00 0.00 63 1011.7
20260905173303 89 219 1.0 1.0 0.00 0.00 0.00 63 1011.9
20260905172803 89 196 1.0 1.0 0.00 0.00 0.00 60 1012.0
20260905172301 90 185 1.0 1.0 0.00 0.00 0.00 60 1012.0
20260905171757 89 189 1.0 1.0 0.00 0.00 0.00 63 1012.1
20260905171253 90 254 2.0 2.0 0.00 0.00 0.00 61 1012.2
20260905170749 89 182 0.0 1.0 0.00 0.00 0.00 63 1012.0
20260905170245 89 209 1.0 1.0 0.00 0.00 0.00 62 1012.2
20260905165744 89 198 0.0 1.0 0.00 0.00 0.00 62 1012.2
20260905165240 88 187 1.0 1.0 0.00 0.00 0.00 62 1012.4
20260905164740 87 174 0.0 1.0 0.00 0.00 0.00 66 1012.4
20260905164234 88 206 1.0 1.0 0.00 0.00 0.00 64 1012.6
20260905163730 89 180 0.0 1.0 0.00 0.00 0.00 62 1012.8
20260905163226 88 186 0.0 0.0 0.00 0.00 0.00 63 1012.5
20260905162722 87 84 1.0 1.0 0.00 0.00 0.00 65 1012.5
20260905162222 86 168 0.0 0.0 0.00 0.00 0.00 65 1012.5
20260905161717 87 223 0.0 1.0 0.00 0.00 0.00 62 1012.6
20260905161215 86 169 1.0 2.0 0.00 0.00 0.00 65 1012.8
20260905160713 86 182 0.0 0.0 0.00 0.00 0.00 64 1012.4
20260905160208 86 199 1.0 1.0 0.00 0.00 0.00 63 1012.5
20260905155702 87 173 0.0 0.0 0.00 0.00 0.00 63 1012.6
20260905155202 87 178 0.0 1.0 0.00 0.00 0.00 63 1012.8
20260905154656 86 173 0.0 1.0 0.00 0.00 0.00 67 1012.8
20260905154151 85 176 0.0 1.0 0.00 0.00 0.00 67 1012.8
20260905153647 84 176 0.0 1.0 0.00 0.00 0.00 67 1012.3
20260905153142 84 227 1.0 2.0 0.00 0.00 0.00 67 1012.5
20260905152637 84 180 1.0 1.0 0.00 0.00 0.00 70 1012.6
20260905152132 83 205 2.0 2.0 0.00 0.00 0.00 69 1012.8
20260905151627 83 202 1.0 1.0 0.00 0.00 0.00 69 1013.0
20260905151122 83 170 0.0 1.0 0.00 0.00 0.00 69 1012.9
20260905150618 84 219 1.0 1.0 0.00 0.00 0.00 66 1013.0
20260905150116 83 175 0.0 1.0 0.00 0.00 0.00 70 1012.8
20260905145614 83 173 0.0 0.0 0.00 0.00 0.00 69 1013.0
20260905145113 81 178 0.0 0.0 0.00 0.00 0.00 70 1013.0
20260905144608 80 156 0.0 1.0 0.00 0.00 0.00 74 1012.9
20260905144108 79 177 0.0 1.0 0.00 0.00 0.00 76 1013.2
20260905143602 78 186 0.0 1.0 0.00 0.00 0.00 75 1013.1
20260905143057 78 164 1.0 1.0 0.00 0.00 0.00 78 1013.2
20260905142556 78 195 1.0 1.0 0.00 0.00 0.00 79 1013.1
20260905142056 78 166 0.0 1.0 0.00 0.00 0.00 79 1012.9
20260905141550 78 153 0.0 0.0 0.00 0.00 0.00 78 1013.4
20260905141047 78 189 0.0 0.0 0.00 0.00 0.00 77 1013.1
20260905140542 77 209 2.0 2.0 0.00 0.00 0.00 76 1013.2
20260905140041 78 167 1.0 1.0 0.00 0.00 0.00 77 1013.2
20260905135537 77 164 0.0 1.0 0.00 0.00 0.00 77 1013.2
20260905135036 77 166 0.0 1.0 0.00 0.00 0.00 78 1013.0
20260905134531 77 162 0.0 1.0 0.00 0.00 0.00 78 1013.2
20260905134030 76 189 1.0 1.0 0.00 0.00 0.00 78 1013.4
20260905133525 76 140 0.0 1.0 0.00 0.00 0.00 79 1013.4
20260905133025 75 173 0.0 0.0 0.00 0.00 0.00 80 1013.2
20260905132525 75 154 1.0 1.0 0.00 0.00 0.00 81 1013.0
20260905132020 75 130 0.0 1.0 0.00 0.00 0.00 81 1013.0
20260905131515 75 170 1.0 1.0 0.00 0.00 0.00 80 1013.1
20260905131010 75 182 1.0 1.0 0.00 0.00 0.00 82 1013.2
20260905130509 74 134 1.0 1.0 0.00 0.00 0.00 81 1013.4
20260905130005 74 166 1.0 1.0 0.00 0.00 0.00 82 1013.2
20260905125459 74 167 0.0 0.0 0.00 0.00 0.00 83 1013.1
20260905124954 74 165 1.0 1.0 0.00 0.00 0.00 84 1013.4
20260905124451 74 136 0.0 1.0 0.00 0.00 0.00 83 1013.3
20260905123946 74 141 1.0 1.0 0.00 0.00 0.00 84 1013.2
20260905123443 74 155 1.0 1.0 0.00 0.00 0.00 84 1013.2
20260905122942 74 147 1.0 2.0 0.00 0.00 0.00 84 1013.4
20260905122437 74 158 2.0 2.0 0.00 0.00 0.00 84 1013.2
20260905121932 74 147 1.0 2.0 0.00 0.00 0.00 83 1013.3
20260905121428 74 135 1.0 2.0 0.00 0.00 0.00 85 1013.3
20260905120927 74 150 1.0 1.0 0.00 0.00 0.00 84 1013.3
20260905120422 74 128 1.0 1.0 0.00 0.00 0.00 84 1013.4
20260905115916 74 138 1.0 1.0 0.00 0.00 0.00 85 1013.0
20260905115416 74 153 1.0 1.0 0.00 0.00 0.00 84 1013.2
20260905114911 74 138 2.0 2.0 0.00 0.00 0.00 84 1012.9
20260905114410 74 128 3.0 3.0 0.00 0.00 0.00 84 1012.8
20260905113910 74 111 1.0 1.0 0.00 0.00 0.00 86 1012.9
20260905113405 75 127 1.0 1.0 0.00 0.00 0.00 86 1012.9
20260905112901 75 97 1.0 1.0 0.00 0.00 0.00 86 1012.5
20260905112355 76 118 2.0 2.0 0.00 0.00 0.00 89 1012.5
20260905111851 76 97 4.0 5.0 0.00 0.00 0.00 95 1012.2
20260905111350 75 135 1.0 1.0 0.00 0.00 0.00 98 1012.2
20260905110850 75 77 1.0 2.0 0.00 0.00 0.00 98 1012.0
20260905110349 74 153 0.0 0.0 0.00 0.00 0.00 98 1011.6
20260905105845 75 144 0.0 0.0 0.00 0.00 0.00 98 1011.7
20260905105345 75 158 0.0 0.0 0.00 0.00 0.00 98 1011.6
20260905104839 75 173 0.0 0.0 0.00 0.00 0.00 98 1011.5
20260905104336 75 173 0.0 0.0 0.00 0.00 0.00 98 1011.4
20260905103835 75 162 0.0 0.0 0.00 0.00 0.00 98 1011.5
20260905103330 75 169 0.0 0.0 0.00 0.00 0.00 98 1011.6
20260905102826 75 163 0.0 0.0 0.00 0.00 0.00 98 1011.4
20260905102323 75 158 0.0 0.0 0.00 0.00 0.00 98 1011.4
20260905101822 75 153 0.0 0.0 0.00 0.00 0.00 98 1011.3
20260905101321 75 165 0.0 0.0 0.00 0.00 0.00 98 1011.1
20260905100816 75 165 0.0 0.0 0.00 0.00 0.00 98 1011.3
20260905100312 75 170 0.0 0.0 0.00 0.00 0.00 98 1011.1
20260905095811 75 170 0.0 0.0 0.00 0.00 0.00 98 1011.0
20260905095311 75 172 0.0 0.0 0.00 0.00 0.00 98 1011.3
20260905094805 75 197 0.0 0.0 0.00 0.00 0.00 98 1011.2
20260905094301 75 182 0.0 0.0 0.00 0.00 0.00 98 1011.2
20260905093754 75 170 0.0 0.0 0.00 0.00 0.00 98 1011.1
20260905093250 75 170 0.0 0.0 0.00 0.00 0.00 98 1011.3
20260905092746 75 174 0.0 0.0 0.00 0.00 0.00 98 1011.3
20260905092241 75 176 0.0 0.0 0.00 0.00 0.00 97 1011.1
20260905091740 76 197 0.0 0.0 0.00 0.00 0.00 97 1011.4
20260905091236 76 184 0.0 0.0 0.00 0.00 0.00 97 1011.4
20260905090734 76 171 0.0 0.0 0.00 0.00 0.00 97 1011.5
20260905090230 75 165 0.0 0.0 0.00 0.00 0.00 97 1011.4
20260905085729 75 163 0.0 0.0 0.00 0.00 0.00 97 1011.2
20260905085225 76 153 0.0 0.0 0.00 0.00 0.00 97 1011.1
20260905084724 76 161 0.0 0.0 0.00 0.00 0.00 97 1011.2
20260905084224 76 165 0.0 0.0 0.00 0.00 0.00 97 1011.2
20260905083719 76 165 0.0 0.0 0.00 0.00 0.00 97 1011.0
20260905083215 76 155 0.0 0.0 0.00 0.00 0.00 97 1011.4
20260905082711 76 150 0.0 0.0 0.00 0.00 0.00 97 1011.3
20260905082207 76 163 0.0 0.0 0.00 0.00 0.00 97 1011.2
20260905081706 76 159 0.0 0.0 0.00 0.00 0.00 97 1011.1
20260905081201 76 163 0.0 0.0 0.00 0.00 0.00 97 1010.9
20260905080701 76 174 0.0 0.0 0.00 0.00 0.00 98 1010.9
20260905080201 76 194 0.0 0.0 0.00 0.00 0.00 98 1010.7
20260905075700 76 211 0.0 0.0 0.00 0.00 0.00 99 1010.8
20260905075159 76 166 0.0 0.0 0.00 0.00 0.00 99 1010.7
20260905074658 76 166 0.0 0.0 0.00 0.00 0.00 99 1010.8
20260905074154 76 164 0.0 0.0 0.00 0.00 0.00 99 1010.8
20260905073650 76 166 0.0 0.0 0.00 0.00 0.00 99 1010.6
20260905073145 76 164 0.0 0.0 0.00 0.00 0.00 99 1010.7
20260905072645 76 170 0.0 0.0 0.00 0.00 0.00 99 1010.7
20260905072140 76 168 0.0 0.0 0.00 0.00 0.00 99 1010.5
20260905071636 76 168 0.0 0.0 0.00 0.00 0.00 99 1010.8
20260905071132 76 174 0.0 0.0 0.00 0.00 0.00 99 1010.5
20260905070627 76 177 0.0 0.0 0.00 0.00 0.00 99 1010.7
20260905070123 76 182 0.0 0.0 0.00 0.00 0.00 99 1010.7
20260905065621 76 174 0.0 0.0 0.00 0.00 0.00 99 1010.7
20260905065116 76 177 0.0 0.0 0.00 0.00 0.00 98 1010.8
20260905064611 76 182 0.0 0.0 0.00 0.00 0.00 98 1010.8
20260905064107 76 197 0.0 0.0 0.00 0.00 0.00 98 1011.0
20260905063605 77 184 0.0 0.0 0.00 0.00 0.00 98 1011.2
20260905063102 77 175 0.0 0.0 0.00 0.00 0.00 98 1011.4
20260905062557 77 175 0.0 0.0 0.00 0.00 0.00 98 1011.4
20260905062056 77 174 0.0 0.0 0.00 0.00 0.00 98 1011.6
20260905061551 77 176 0.0 0.0 0.00 0.00 0.00 98 1011.6
20260905061051 77 177 0.0 0.0 0.00 0.00 0.00 98 1011.6
20260905060547 77 169 0.0 0.0 0.00 0.00 0.00 98 1011.5
20260905060042 77 172 0.0 0.0 0.00 0.00 0.00 98 1011.6
20260905055541 77 173 0.0 0.0 0.00 0.00 0.00 97 1011.6
20260905055036 77 172 0.0 0.0 0.00 0.00 0.00 97 1011.8
20260905054532 77 174 0.0 0.0 0.00 0.00 0.00 97 1011.8
20260905054027 77 171 0.0 0.0 0.00 0.00 0.00 97 1011.7
20260905053527 77 169 0.0 0.0 0.00 0.00 0.00 97 1011.9
20260905053023 77 168 0.0 0.0 0.00 0.00 0.00 97 1011.9
20260905052521 77 168 0.0 0.0 0.00 0.00 0.00 97 1011.9
20260905052016 77 170 0.0 0.0 0.00 0.00 0.00 97 1011.9
20260905051512 77 171 0.0 0.0 0.00 0.00 0.00 97 1011.8
20260905051009 77 170 0.0 0.0 0.00 0.00 0.00 96 1012.0
20260905050504 78 171 0.0 0.0 0.00 0.00 0.00 96 1011.9
20260905050001 78 170 0.0 0.0 0.00 0.00 0.00 96 1011.9
20260905045455 78 169 0.0 0.0 0.00 0.00 0.00 96 1011.9
20260905044950 78 169 0.0 0.0 0.00 0.00 0.00 96 1012.0
20260905044445 78 169 0.0 0.0 0.00 0.00 0.00 96 1011.9
20260905043945 78 169 0.0 0.0 0.00 0.00 0.00 95 1011.9
20260905043444 78 168 0.0 0.0 0.00 0.00 0.00 95 1011.9
20260905042939 78 168 0.0 0.0 0.00 0.00 0.00 95 1012.0
20260905042433 78 168 0.0 0.0 0.00 0.00 0.00 95 1012.0
20260905041929 78 172 0.0 0.0 0.00 0.00 0.00 94 1011.8
20260905041424 78 177 0.0 0.0 0.00 0.00 0.00 94 1012.0
20260905040924 78 177 0.0 0.0 0.00 0.00 0.00 94 1012.1
20260905040418 78 173 0.0 0.0 0.00 0.00 0.00 94 1012.1
20260905035918 79 172 0.0 0.0 0.00 0.00 0.00 94 1012.2
20260905035413 79 172 0.0 0.0 0.00 0.00 0.00 93 1012.3
20260905034910 79 172 0.0 0.0 0.00 0.00 0.00 93 1011.9
20260905034405 79 176 0.0 0.0 0.00 0.00 0.00 93 1012.1
20260905033904 79 177 0.0 0.0 0.00 0.00 0.00 93 1012.1
20260905033359 79 174 0.0 0.0 0.00 0.00 0.00 93 1012.1
20260905032858 79 175 0.0 0.0 0.00 0.00 0.00 92 1012.2
20260905032354 79 175 0.0 0.0 0.00 0.00 0.00 92 1012.2
20260905031849 79 175 0.0 0.0 0.00 0.00 0.00 92 1012.1
20260905031345 79 175 0.0 0.0 0.00 0.00 0.00 92 1012.3
20260905030840 80 174 0.0 0.0 0.00 0.00 0.00 92 1012.3
20260905030336 80 175 0.0 0.0 0.00 0.00 0.00 92 1012.2
20260905025835 80 174 0.0 0.0 0.00 0.00 0.00 91 1012.1
20260905025330 80 174 0.0 0.0 0.00 0.00 0.00 91 1012.3
20260905024827 80 177 0.0 0.0 0.00 0.00 0.00 91 1012.1
20260905024321 80 172 0.0 0.0 0.00 0.00 0.00 91 1012.1
20260905023817 80 173 0.0 0.0 0.00 0.00 0.00 90 1012.0
20260905023312 80 173 0.0 0.0 0.00 0.00 0.00 89 1012.0
20260905022811 80 173 0.0 0.0 0.00 0.00 0.00 89 1012.0
20260905022307 80 173 0.0 0.0 0.00 0.00 0.00 89 1011.9
20260905021806 80 173 0.0 0.0 0.00 0.00 0.00 89 1011.8
20260905021301 81 172 0.0 0.0 0.00 0.00 0.00 89 1012.2
20260905020756 81 173 0.0 0.0 0.00 0.00 0.00 88 1012.0
20260905020251 81 172 0.0 0.0 0.00 0.00 0.00 87 1012.0
20260905015750 81 173 0.0 0.0 0.00 0.00 0.00 87 1011.8
20260905015244 81 167 0.0 0.0 0.00 0.00 0.00 87 1011.9